#datetime,building,power
2023-02-12T00:01:00,pth,15.60
2023-02-12T00:03:00,pth,15.60
2023-02-12T00:04:00,pth,7.20
2023-02-12T00:06:00,pth,15.60
2023-02-12T00:08:00,pth,15.60
2023-02-12T00:10:00,pth,8.40
2023-02-12T00:11:00,pth,8.40
2023-02-12T00:12:00,pth,14.40
2023-02-12T00:13:00,pth,6.00
2023-02-12T00:15:00,pth,9.60
2023-02-12T00:16:00,pth,7.20
2023-02-12T00:18:00,pth,8.40
2023-02-12T00:20:00,pth,4.80
2023-02-12T00:21:00,pth,2.40
2023-02-12T00:23:00,pth,4.80
2023-02-12T00:24:00,pth,4.80
2023-02-12T00:25:00,pth,3.60
2023-02-12T00:27:00,pth,4.80
2023-02-12T00:29:00,pth,2.40
2023-02-12T00:30:00,pth,1.20
2023-02-12T00:32:00,pth,1.20
2023-02-12T00:34:00,pth,2.40
2023-02-12T00:36:00,pth,2.40
2023-02-12T00:38:00,pth,2.40
2023-02-12T00:39:00,pth,1.20
2023-02-12T00:41:00,pth,1.20
2023-02-12T00:42:00,pth,1.20
2023-02-12T00:44:00,pth,2.40
2023-02-12T00:45:00,pth,1.20
2023-02-12T00:47:00,pth,2.40
2023-02-12T00:49:00,pth,2.40
2023-02-12T00:51:00,pth,2.40
2023-02-12T00:53:00,pth,3.60
2023-02-12T00:55:00,pth,4.80
2023-02-12T00:57:00,pth,3.60
2023-02-12T00:59:00,pth,3.60
2023-02-12T01:00:00,pth,2.40
2023-02-12T01:02:00,pth,2.40
2023-02-12T01:03:00,pth,1.20
2023-02-12T01:04:00,pth,1.20
2023-02-12T01:06:00,pth,1.20
2023-02-12T01:08:00,pth,2.40
2023-02-12T01:09:00,pth,1.20
2023-02-12T01:12:00,pth,2.40
2023-02-12T01:14:00,pth,1.20
2023-02-12T01:16:00,pth,2.40
2023-02-12T01:19:00,pth,2.40
2023-02-12T01:20:00,pth,1.20
2023-02-12T01:22:00,pth,4.80
2023-02-12T01:24:00,pth,3.60
2023-02-12T01:26:00,pth,4.80
2023-02-12T01:28:00,pth,3.60
2023-02-12T01:29:00,pth,1.20
2023-02-12T01:31:00,pth,2.40
2023-02-12T01:33:00,pth,1.20
2023-02-12T01:35:00,pth,2.40
2023-02-12T01:36:00,pth,1.20
2023-02-12T01:37:00,pth,1.20
2023-02-12T01:39:00,pth,1.20
2023-02-12T01:41:00,pth,2.40
2023-02-12T01:42:00,pth,1.20
2023-02-12T01:44:00,pth,1.20
2023-02-12T01:46:00,pth,2.40
2023-02-12T01:47:00,pth,2.40
2023-02-12T01:48:00,pth,1.20
2023-02-12T01:50:00,pth,4.80
2023-02-12T01:52:00,pth,3.60
2023-02-12T01:53:00,pth,1.20
2023-02-12T01:55:00,pth,3.60
2023-02-12T01:57:00,pth,2.40
2023-02-12T02:00:00,pth,2.40
2023-02-12T02:01:00,pth,1.20
2023-02-12T02:03:00,pth,2.40
2023-02-12T02:04:00,pth,1.20
2023-02-12T02:06:00,pth,1.20
2023-02-12T02:08:00,pth,2.40
2023-02-12T02:09:00,pth,1.20
2023-02-12T02:11:00,pth,1.20
2023-02-12T02:13:00,pth,3.60
2023-02-12T02:14:00,pth,2.40
2023-02-12T02:16:00,pth,3.60
2023-02-12T02:17:00,pth,2.40
2023-02-12T02:19:00,pth,3.60
2023-02-12T02:20:00,pth,2.40
2023-02-12T02:22:00,pth,2.40
2023-02-12T02:24:00,pth,1.20
2023-02-12T02:26:00,pth,1.20
2023-02-12T02:28:00,pth,2.40
2023-02-12T02:30:00,pth,1.20
2023-02-12T02:32:00,pth,2.40
2023-02-12T02:34:00,pth,1.20
2023-02-12T02:36:00,pth,2.40
2023-02-12T02:37:00,pth,1.20
2023-02-12T02:39:00,pth,3.60
2023-02-12T02:41:00,pth,3.60
2023-02-12T02:43:00,pth,3.60
2023-02-12T02:45:00,pth,3.60
2023-02-12T02:46:00,pth,2.40
2023-02-12T02:48:00,pth,2.40
2023-02-12T02:49:00,pth,1.20
2023-02-12T02:51:00,pth,1.20
2023-02-12T02:53:00,pth,2.40
2023-02-12T02:55:00,pth,1.20
2023-02-12T02:57:00,pth,2.40
2023-02-12T02:58:00,pth,1.20
2023-02-12T03:00:00,pth,2.40
2023-02-12T03:01:00,pth,1.20
2023-02-12T03:03:00,pth,3.60
2023-02-12T03:04:00,pth,2.40
2023-02-12T03:06:00,pth,3.60
2023-02-12T03:07:00,pth,2.40
2023-02-12T03:09:00,pth,3.60
2023-02-12T03:10:00,pth,2.40
2023-02-12T03:12:00,pth,2.40
2023-02-12T03:14:00,pth,2.40
2023-02-12T03:15:00,pth,1.20
2023-02-12T03:17:00,pth,1.20
2023-02-12T03:19:00,pth,2.40
2023-02-12T03:20:00,pth,1.20
2023-02-12T03:22:00,pth,1.20
2023-02-12T03:24:00,pth,2.40
2023-02-12T03:25:00,pth,2.40
2023-02-12T03:27:00,pth,3.60
2023-02-12T03:28:00,pth,2.40
2023-02-12T03:30:00,pth,3.60
2023-02-12T03:32:00,pth,3.60
2023-02-12T03:34:00,pth,4.80
2023-02-12T03:36:00,pth,3.60
2023-02-12T03:38:00,pth,2.40
2023-02-12T03:39:00,pth,1.20
2023-02-12T03:41:00,pth,2.40
2023-02-12T03:42:00,pth,1.20
2023-02-12T03:44:00,pth,1.20
2023-02-12T03:46:00,pth,2.40
2023-02-12T03:48:00,pth,2.40
2023-02-12T03:50:00,pth,2.40
2023-02-12T03:52:00,pth,3.60
2023-02-12T03:54:00,pth,3.60
2023-02-12T03:56:00,pth,3.60
2023-02-12T03:57:00,pth,2.40
2023-02-12T03:58:00,pth,1.20
2023-02-12T04:00:00,pth,3.60
2023-02-12T04:02:00,pth,3.60
2023-02-12T04:04:00,pth,2.40
2023-02-12T04:05:00,pth,1.20
2023-02-12T04:07:00,pth,1.20
2023-02-12T04:09:00,pth,2.40
2023-02-12T04:10:00,pth,1.20
2023-02-12T04:12:00,pth,1.20
2023-02-12T04:14:00,pth,2.40
2023-02-12T04:15:00,pth,1.20
2023-02-12T04:17:00,pth,3.60
2023-02-12T04:18:00,pth,1.20
2023-02-12T04:20:00,pth,4.80
2023-02-12T04:22:00,pth,3.60
2023-02-12T04:24:00,pth,3.60
2023-02-12T04:26:00,pth,3.60
2023-02-12T04:27:00,pth,1.20
2023-02-12T04:29:00,pth,1.20
2023-02-12T04:30:00,pth,1.20
2023-02-12T04:32:00,pth,1.20
2023-02-12T04:33:00,pth,1.20
2023-02-12T04:34:00,pth,1.20
2023-02-12T04:36:00,pth,1.20
2023-02-12T04:37:00,pth,1.20
2023-02-12T04:39:00,pth,2.40
2023-02-12T04:40:00,pth,1.20
2023-02-12T04:42:00,pth,3.60
2023-02-12T04:44:00,pth,3.60
2023-02-12T04:46:00,pth,3.60
2023-02-12T04:48:00,pth,4.80
2023-02-12T04:49:00,pth,1.20
2023-02-12T04:50:00,pth,2.40
2023-02-12T04:52:00,pth,3.60
2023-02-12T04:54:00,pth,2.40
2023-02-12T04:56:00,pth,1.20
2023-02-12T04:57:00,pth,1.20
2023-02-12T04:59:00,pth,1.20
2023-02-12T05:00:00,pth,1.20
2023-02-12T05:02:00,pth,2.40
2023-02-12T05:04:00,pth,1.20
2023-02-12T05:06:00,pth,2.40
2023-02-12T05:07:00,pth,2.40
2023-02-12T05:09:00,pth,3.60
2023-02-12T05:10:00,pth,1.20
2023-02-12T05:12:00,pth,3.60
2023-02-12T05:13:00,pth,2.40
2023-02-12T05:15:00,pth,3.60
2023-02-12T05:16:00,pth,2.40
2023-02-12T05:17:00,pth,1.20
2023-02-12T05:19:00,pth,2.40
2023-02-12T05:20:00,pth,1.20
2023-02-12T05:21:00,pth,1.20
2023-02-12T05:23:00,pth,1.20
2023-02-12T05:25:00,pth,2.40
2023-02-12T05:27:00,pth,1.20
2023-02-12T05:28:00,pth,1.20
2023-02-12T05:29:00,pth,1.20
2023-02-12T05:31:00,pth,1.20
2023-02-12T05:33:00,pth,3.60
2023-02-12T05:34:00,pth,2.40
2023-02-12T05:36:00,pth,3.60
2023-02-12T05:37:00,pth,2.40
2023-02-12T05:39:00,pth,3.60
2023-02-12T05:40:00,pth,1.20
2023-02-12T05:42:00,pth,4.80
2023-02-12T05:44:00,pth,3.60
2023-02-12T05:45:00,pth,1.20
2023-02-12T05:46:00,pth,1.20
2023-02-12T05:48:00,pth,2.40
2023-02-12T05:50:00,pth,1.20
2023-02-12T05:51:00,pth,1.20
2023-02-12T05:53:00,pth,2.40
2023-02-12T05:55:00,pth,1.20
2023-02-12T05:57:00,pth,2.40
2023-02-12T05:58:00,pth,2.40
2023-02-12T06:00:00,pth,3.60
2023-02-12T06:01:00,pth,1.20
2023-02-12T06:02:00,pth,2.40
2023-02-12T06:04:00,pth,3.60
2023-02-12T06:06:00,pth,4.80
2023-02-12T06:08:00,pth,3.60
2023-02-12T06:09:00,pth,2.40
2023-02-12T06:10:00,pth,2.40
2023-02-12T06:11:00,pth,1.20
2023-02-12T06:13:00,pth,2.40
2023-02-12T06:15:00,pth,1.20
2023-02-12T06:17:00,pth,2.40
2023-02-12T06:18:00,pth,1.20
2023-02-12T06:19:00,pth,1.20
2023-02-12T06:21:00,pth,1.20
2023-02-12T06:22:00,pth,1.20
2023-02-12T06:23:00,pth,1.20
2023-02-12T06:24:00,pth,2.40
2023-02-12T06:25:00,pth,1.20
2023-02-12T06:27:00,pth,4.80
2023-02-12T06:29:00,pth,3.60
2023-02-12T06:31:00,pth,3.60
2023-02-12T06:33:00,pth,3.60
2023-02-12T06:34:00,pth,2.40
2023-02-12T06:36:00,pth,3.60
2023-02-12T06:37:00,pth,1.20
2023-02-12T06:39:00,pth,1.20
2023-02-12T06:41:00,pth,2.40
2023-02-12T06:42:00,pth,1.20
2023-02-12T06:43:00,pth,1.20
2023-02-12T06:45:00,pth,1.20
2023-02-12T06:46:00,pth,1.20
2023-02-12T06:48:00,pth,2.40
2023-02-12T06:50:00,pth,3.60
2023-02-12T06:52:00,pth,3.60
2023-02-12T06:53:00,pth,2.40
2023-02-12T06:55:00,pth,3.60
2023-02-12T06:57:00,pth,4.80
2023-02-12T06:59:00,pth,3.60
2023-02-12T07:00:00,pth,1.20
2023-02-12T07:02:00,pth,3.60
2023-02-12T07:05:00,pth,1.20
2023-02-12T07:06:00,pth,1.20
2023-02-12T07:08:00,pth,1.20
2023-02-12T07:10:00,pth,1.20
2023-02-12T07:12:00,pth,1.20
2023-02-12T07:14:00,pth,1.20
2023-02-12T07:16:00,pth,3.60
2023-02-12T07:18:00,pth,3.60
2023-02-12T07:20:00,pth,3.60
2023-02-12T07:21:00,pth,1.20
2023-02-12T07:23:00,pth,3.60
2023-02-12T07:24:00,pth,1.20
2023-02-12T07:25:00,pth,1.20
2023-02-12T07:27:00,pth,3.60
2023-02-12T07:29:00,pth,2.40
2023-02-12T07:31:00,pth,1.20
2023-02-12T07:33:00,pth,1.20
2023-02-12T07:35:00,pth,1.20
2023-02-12T07:37:00,pth,2.40
2023-02-12T07:40:00,pth,1.20
2023-02-12T07:41:00,pth,2.40
2023-02-12T07:43:00,pth,2.40
2023-02-12T07:45:00,pth,3.60
2023-02-12T07:47:00,pth,3.60
2023-02-12T07:48:00,pth,1.20
2023-02-12T07:50:00,pth,3.60
2023-02-12T07:52:00,pth,3.60
2023-02-12T07:54:00,pth,4.80
2023-02-12T07:56:00,pth,3.60
2023-02-12T07:58:00,pth,1.20
2023-02-12T08:00:00,pth,2.40
2023-02-12T08:02:00,pth,1.20
2023-02-12T08:04:00,pth,1.20
2023-02-12T08:05:00,pth,1.20
2023-02-12T08:07:00,pth,1.20
2023-02-12T08:09:00,pth,2.40
2023-02-12T08:11:00,pth,3.60
2023-02-12T08:12:00,pth,1.20
2023-02-12T08:14:00,pth,3.60
2023-02-12T08:15:00,pth,1.20
2023-02-12T08:16:00,pth,2.40
2023-02-12T08:18:00,pth,2.40
2023-02-12T08:20:00,pth,3.60
2023-02-12T08:21:00,pth,1.20
2023-02-12T08:22:00,pth,1.20
2023-02-12T08:23:00,pth,1.20
2023-02-12T08:25:00,pth,1.20
2023-02-12T08:26:00,pth,1.20
2023-02-12T08:27:00,pth,1.20
2023-02-12T08:29:00,pth,1.20
2023-02-12T08:31:00,pth,2.40
2023-02-12T08:33:00,pth,1.20
2023-02-12T08:35:00,pth,2.40
2023-02-12T08:37:00,pth,3.60
2023-02-12T08:38:00,pth,2.40
2023-02-12T08:40:00,pth,3.60
2023-02-12T08:42:00,pth,4.80
2023-02-12T08:44:00,pth,3.60
2023-02-12T08:45:00,pth,2.40
2023-02-12T08:46:00,pth,1.20
2023-02-12T08:47:00,pth,2.40
2023-02-12T08:49:00,pth,3.60
2023-02-12T08:50:00,pth,1.20
2023-02-12T08:52:00,pth,2.40
2023-02-12T08:54:00,pth,3.60
2023-02-12T08:56:00,pth,3.60
2023-02-12T08:57:00,pth,1.20
2023-02-12T08:59:00,pth,3.60
2023-02-12T09:00:00,pth,2.40
2023-02-12T09:02:00,pth,3.60
2023-02-12T09:03:00,pth,2.40
2023-02-12T09:05:00,pth,6.00
2023-02-12T09:07:00,pth,4.80
2023-02-12T09:09:00,pth,3.60
2023-02-12T09:11:00,pth,3.60
2023-02-12T09:12:00,pth,1.20
2023-02-12T09:13:00,pth,2.40
2023-02-12T09:15:00,pth,2.40
2023-02-12T09:16:00,pth,1.20
2023-02-12T09:17:00,pth,1.20
2023-02-12T09:19:00,pth,1.20
2023-02-12T09:20:00,pth,1.20
2023-02-12T09:22:00,pth,1.20
2023-02-12T09:23:00,pth,1.20
2023-02-12T09:25:00,pth,1.20
2023-02-12T09:28:00,pth,1.20
2023-02-12T09:30:00,pth,3.60
2023-02-12T09:31:00,pth,1.20
2023-02-12T09:32:00,pth,2.40
2023-02-12T09:34:00,pth,3.60
2023-02-12T09:35:00,pth,1.20
2023-02-12T09:36:00,pth,2.40
2023-02-12T09:38:00,pth,3.60
2023-02-12T09:39:00,pth,1.20
2023-02-12T09:41:00,pth,4.80
2023-02-12T09:42:00,pth,2.40
2023-02-12T09:43:00,pth,2.40
2023-02-12T09:45:00,pth,4.80
2023-02-12T09:46:00,pth,2.40
2023-02-12T09:47:00,pth,1.20
2023-02-12T09:49:00,pth,4.80
2023-02-12T09:51:00,pth,4.80
2023-02-12T09:52:00,pth,1.20
2023-02-12T09:54:00,pth,3.60
2023-02-12T09:56:00,pth,3.60
2023-02-12T09:58:00,pth,4.80
2023-02-12T10:00:00,pth,3.60
2023-02-12T10:02:00,pth,4.80
2023-02-12T10:04:00,pth,3.60
2023-02-12T10:06:00,pth,3.60
2023-02-12T10:09:00,pth,1.20
2023-02-12T10:11:00,pth,1.20
2023-02-12T10:12:00,pth,6.00
2023-02-12T10:14:00,pth,13.20
2023-02-12T10:15:00,pth,7.20
2023-02-12T10:17:00,pth,14.40
2023-02-12T10:19:00,pth,14.40
2023-02-12T10:20:00,pth,8.40
2023-02-12T10:22:00,pth,14.40
2023-02-12T10:24:00,pth,14.40
2023-02-12T10:25:00,pth,7.20
2023-02-12T10:27:00,pth,15.60
2023-02-12T10:28:00,pth,7.20
2023-02-12T10:30:00,pth,15.60
2023-02-12T10:31:00,pth,7.20
2023-02-12T10:33:00,pth,14.40
2023-02-12T10:35:00,pth,8.40
2023-02-12T10:36:00,pth,7.20
2023-02-12T10:37:00,pth,4.80
2023-02-12T10:39:00,pth,13.20
2023-02-12T10:40:00,pth,7.20
2023-02-12T10:41:00,pth,2.40
2023-02-12T10:43:00,pth,14.40
2023-02-12T10:44:00,pth,6.00
2023-02-12T10:46:00,pth,9.60
2023-02-12T10:47:00,pth,7.20
2023-02-12T10:48:00,pth,4.80
2023-02-12T10:50:00,pth,10.80
2023-02-12T10:52:00,pth,9.60
2023-02-12T10:53:00,pth,4.80
2023-02-12T10:55:00,pth,13.20
2023-02-12T10:57:00,pth,9.60
2023-02-12T10:58:00,pth,7.20
2023-02-12T11:00:00,pth,7.20
2023-02-12T11:01:00,pth,7.20
2023-02-12T11:03:00,pth,7.20
2023-02-12T11:04:00,pth,7.20
2023-02-12T11:06:00,pth,10.80
2023-02-12T11:07:00,pth,3.60
2023-02-12T11:08:00,pth,7.20
2023-02-12T11:10:00,pth,8.40
2023-02-12T11:11:00,pth,8.40
2023-02-12T11:12:00,pth,2.40
2023-02-12T11:13:00,pth,2.40
2023-02-12T11:15:00,pth,3.60
2023-02-12T11:17:00,pth,3.60
2023-02-12T11:19:00,pth,3.60
2023-02-12T11:20:00,pth,1.20
2023-02-12T11:22:00,pth,2.40
2023-02-12T11:24:00,pth,1.20
2023-02-12T11:25:00,pth,1.20
2023-02-12T11:26:00,pth,1.20
2023-02-12T11:29:00,pth,1.20
2023-02-12T11:31:00,pth,1.20
2023-02-12T11:33:00,pth,2.40
2023-02-12T11:36:00,pth,2.40
2023-02-12T11:38:00,pth,1.20
2023-02-12T11:40:00,pth,1.20
2023-02-12T11:42:00,pth,1.20
2023-02-12T11:44:00,pth,1.20
2023-02-12T11:46:00,pth,2.40
2023-02-12T11:47:00,pth,1.20
2023-02-12T11:49:00,pth,3.60
2023-02-12T11:50:00,pth,2.40
2023-02-12T11:52:00,pth,3.60
2023-02-12T11:54:00,pth,3.60
2023-02-12T11:55:00,pth,1.20
2023-02-12T11:56:00,pth,1.20
2023-02-12T11:58:00,pth,1.20
2023-02-12T12:00:00,pth,2.40
2023-02-12T12:02:00,pth,1.20
2023-02-12T12:04:00,pth,2.40
2023-02-12T12:06:00,pth,2.40
2023-02-12T12:08:00,pth,1.20
2023-02-12T12:10:00,pth,1.20
2023-02-12T12:11:00,pth,1.20
2023-02-12T12:13:00,pth,2.40
2023-02-12T12:15:00,pth,1.20
2023-02-12T12:16:00,pth,2.40
2023-02-12T12:18:00,pth,3.60
2023-02-12T12:19:00,pth,2.40
2023-02-12T12:21:00,pth,2.40
2023-02-12T12:22:00,pth,2.40
2023-02-12T12:24:00,pth,2.40
2023-02-12T12:25:00,pth,1.20
2023-02-12T12:27:00,pth,1.20
2023-02-12T12:29:00,pth,1.20
2023-02-12T12:30:00,pth,1.20
2023-02-12T12:32:00,pth,1.20
2023-02-12T12:34:00,pth,1.20
2023-02-12T12:36:00,pth,2.40
2023-02-12T12:38:00,pth,1.20
2023-02-12T12:40:00,pth,1.20
2023-02-12T12:41:00,pth,1.20
2023-02-12T12:42:00,pth,1.20
2023-02-12T12:44:00,pth,2.40
2023-02-12T12:45:00,pth,1.20
2023-02-12T12:47:00,pth,3.60
2023-02-12T12:48:00,pth,1.20
2023-02-12T12:50:00,pth,3.60
2023-02-12T12:52:00,pth,2.40
2023-02-12T12:54:00,pth,1.20
2023-02-12T12:56:00,pth,1.20
2023-02-12T12:58:00,pth,1.20
2023-02-12T13:00:00,pth,1.20
2023-02-12T13:02:00,pth,1.20
2023-02-12T13:03:00,pth,1.20
2023-02-12T13:05:00,pth,1.20
2023-02-12T13:07:00,pth,1.20
2023-02-12T13:10:00,pth,1.20
2023-02-12T13:12:00,pth,3.60
2023-02-12T13:14:00,pth,3.60
2023-02-12T13:15:00,pth,1.20
2023-02-12T13:17:00,pth,2.40
2023-02-12T13:19:00,pth,3.60
2023-02-12T13:21:00,pth,1.20
2023-02-12T13:24:00,pth,2.40
2023-02-12T13:26:00,pth,1.20
2023-02-12T13:28:00,pth,2.40
2023-02-12T13:30:00,pth,1.20
2023-02-12T13:31:00,pth,1.20
2023-02-12T13:33:00,pth,1.20
2023-02-12T13:35:00,pth,2.40
2023-02-12T13:37:00,pth,1.20
2023-02-12T13:39:00,pth,2.40
2023-02-12T13:41:00,pth,3.60
2023-02-12T13:43:00,pth,3.60
2023-02-12T13:44:00,pth,2.40
2023-02-12T13:46:00,pth,3.60
2023-02-12T13:48:00,pth,1.20
2023-02-12T13:50:00,pth,2.40
2023-02-12T13:54:00,pth,1.20
2023-02-12T13:55:00,pth,1.20
2023-02-12T13:57:00,pth,2.40
2023-02-12T13:59:00,pth,1.20
2023-02-12T14:02:00,pth,2.40
2023-02-12T14:04:00,pth,1.20
2023-02-12T14:06:00,pth,4.80
2023-02-12T14:07:00,pth,1.20
2023-02-12T14:09:00,pth,3.60
2023-02-12T14:10:00,pth,2.40
2023-02-12T14:12:00,pth,3.60
2023-02-12T14:14:00,pth,3.60
2023-02-12T14:17:00,pth,2.40
2023-02-12T14:18:00,pth,1.20
2023-02-12T14:20:00,pth,1.20
2023-02-12T14:22:00,pth,2.40
2023-02-12T14:24:00,pth,2.40
2023-02-12T14:25:00,pth,1.20
2023-02-12T14:27:00,pth,2.40
2023-02-12T14:28:00,pth,1.20
2023-02-12T14:30:00,pth,3.60
2023-02-12T14:32:00,pth,2.40
2023-02-12T14:33:00,pth,2.40
2023-02-12T14:35:00,pth,4.80
2023-02-12T14:36:00,pth,1.20
2023-02-12T14:37:00,pth,1.20
2023-02-12T14:39:00,pth,3.60
2023-02-12T14:41:00,pth,3.60
2023-02-12T14:42:00,pth,2.40
2023-02-12T14:43:00,pth,1.20
2023-02-12T14:44:00,pth,1.20
2023-02-12T14:46:00,pth,2.40
2023-02-12T14:49:00,pth,2.40
2023-02-12T14:51:00,pth,1.20
2023-02-12T14:52:00,pth,1.20
2023-02-12T14:54:00,pth,1.20
2023-02-12T14:55:00,pth,1.20
2023-02-12T14:56:00,pth,1.20
2023-02-12T14:58:00,pth,1.20
2023-02-12T15:00:00,pth,2.40
2023-02-12T15:02:00,pth,2.40
2023-02-12T15:04:00,pth,4.80
2023-02-12T15:06:00,pth,4.80
2023-02-12T15:08:00,pth,3.60
2023-02-12T15:10:00,pth,4.80
2023-02-12T15:12:00,pth,3.60
2023-02-12T15:14:00,pth,1.20
2023-02-12T15:16:00,pth,2.40
2023-02-12T15:17:00,pth,1.20
2023-02-12T15:19:00,pth,2.40
2023-02-12T15:20:00,pth,1.20
2023-02-12T15:21:00,pth,1.20
2023-02-12T15:22:00,pth,1.20
2023-02-12T15:24:00,pth,3.60
2023-02-12T15:25:00,pth,1.20
2023-02-12T15:27:00,pth,2.40
2023-02-12T15:28:00,pth,1.20
2023-02-12T15:30:00,pth,2.40
2023-02-12T15:32:00,pth,1.20
2023-02-12T15:34:00,pth,3.60
2023-02-12T15:36:00,pth,3.60
2023-02-12T15:38:00,pth,4.80
2023-02-12T15:40:00,pth,3.60
2023-02-12T15:42:00,pth,8.40
2023-02-12T15:44:00,pth,13.20
2023-02-12T15:46:00,pth,12.00
2023-02-12T15:48:00,pth,14.40
2023-02-12T15:49:00,pth,7.20
2023-02-12T15:51:00,pth,14.40
2023-02-12T15:53:00,pth,14.40
2023-02-12T15:55:00,pth,9.60
2023-02-12T15:57:00,pth,14.40
2023-02-12T15:58:00,pth,4.80
2023-02-12T15:59:00,pth,4.80
2023-02-12T16:01:00,pth,15.60
2023-02-12T16:03:00,pth,9.60
2023-02-12T16:05:00,pth,12.00
2023-02-12T16:06:00,pth,4.80
2023-02-12T16:08:00,pth,14.40
2023-02-12T16:10:00,pth,9.60
2023-02-12T16:11:00,pth,8.40
2023-02-12T16:13:00,pth,10.80
2023-02-12T16:15:00,pth,13.20
2023-02-12T16:16:00,pth,6.00
2023-02-12T16:18:00,pth,14.40
2023-02-12T16:19:00,pth,3.60
2023-02-12T16:20:00,pth,8.40
2023-02-12T16:22:00,pth,9.60
2023-02-12T16:23:00,pth,8.40
2023-02-12T16:25:00,pth,9.60
2023-02-12T16:27:00,pth,14.40
2023-02-12T16:28:00,pth,2.40
2023-02-12T16:30:00,pth,14.40
2023-02-12T16:32:00,pth,9.60
2023-02-12T16:33:00,pth,7.20
2023-02-12T16:35:00,pth,10.80
2023-02-12T16:37:00,pth,12.00
2023-02-12T16:39:00,pth,12.00
2023-02-12T16:41:00,pth,9.60
2023-02-12T16:43:00,pth,4.80
2023-02-12T16:45:00,pth,4.80
2023-02-12T16:47:00,pth,4.80
2023-02-12T16:48:00,pth,2.40
2023-02-12T16:49:00,pth,1.20
2023-02-12T16:51:00,pth,2.40
2023-02-12T16:52:00,pth,1.20
2023-02-12T16:55:00,pth,2.40
2023-02-12T16:56:00,pth,1.20
2023-02-12T16:57:00,pth,1.20
2023-02-12T16:58:00,pth,1.20
2023-02-12T17:00:00,pth,2.40
2023-02-12T17:02:00,pth,2.40
2023-02-12T17:05:00,pth,2.40
2023-02-12T17:07:00,pth,1.20
2023-02-12T17:08:00,pth,1.20
2023-02-12T17:09:00,pth,1.20
2023-02-12T17:12:00,pth,2.40
2023-02-12T17:14:00,pth,1.20
2023-02-12T17:16:00,pth,3.60
2023-02-12T17:17:00,pth,2.40
2023-02-12T17:19:00,pth,4.80
2023-02-12T17:21:00,pth,3.60
2023-02-12T17:22:00,pth,2.40
2023-02-12T17:23:00,pth,1.20
2023-02-12T17:25:00,pth,2.40
2023-02-12T17:27:00,pth,2.40
2023-02-12T17:28:00,pth,1.20
2023-02-12T17:29:00,pth,1.20
2023-02-12T17:31:00,pth,2.40
2023-02-12T17:33:00,pth,9.60
2023-02-12T17:34:00,pth,7.20
2023-02-12T17:36:00,pth,13.20
2023-02-12T17:37:00,pth,8.40
2023-02-12T17:38:00,pth,8.40
2023-02-12T17:40:00,pth,15.60
2023-02-12T17:42:00,pth,15.60
2023-02-12T17:44:00,pth,15.60
2023-02-12T17:45:00,pth,7.20
2023-02-12T17:47:00,pth,12.00
2023-02-12T17:48:00,pth,7.20
2023-02-12T17:50:00,pth,15.60
2023-02-12T17:51:00,pth,4.80
2023-02-12T17:53:00,pth,15.60
2023-02-12T17:55:00,pth,10.80
2023-02-12T17:56:00,pth,7.20
2023-02-12T17:57:00,pth,3.60
2023-02-12T17:59:00,pth,12.00
2023-02-12T18:01:00,pth,12.00
2023-02-12T18:03:00,pth,13.20
2023-02-12T18:05:00,pth,10.80
2023-02-12T18:07:00,pth,10.80
2023-02-12T18:08:00,pth,8.40
2023-02-12T18:10:00,pth,9.60
2023-02-12T18:11:00,pth,8.40
2023-02-12T18:13:00,pth,12.00
2023-02-12T18:14:00,pth,4.80
2023-02-12T18:16:00,pth,14.40
2023-02-12T18:18:00,pth,9.60
2023-02-12T18:19:00,pth,7.20
2023-02-12T18:21:00,pth,9.60
2023-02-12T18:23:00,pth,12.00
2023-02-12T18:24:00,pth,3.60
2023-02-12T18:26:00,pth,15.60
2023-02-12T18:28:00,pth,9.60
2023-02-12T18:29:00,pth,6.00
2023-02-12T18:31:00,pth,4.80
2023-02-12T18:33:00,pth,4.80
2023-02-12T18:35:00,pth,4.80
2023-02-12T18:37:00,pth,4.80
2023-02-12T18:38:00,pth,2.40
2023-02-12T18:40:00,pth,3.60
2023-02-12T18:42:00,pth,2.40
2023-02-12T18:43:00,pth,1.20
2023-02-12T18:44:00,pth,1.20
2023-02-12T18:46:00,pth,2.40
2023-02-12T18:48:00,pth,3.60
2023-02-12T18:50:00,pth,2.40
2023-02-12T18:52:00,pth,3.60
2023-02-12T18:53:00,pth,2.40
2023-02-12T18:54:00,pth,1.20
2023-02-12T18:56:00,pth,3.60
2023-02-12T18:57:00,pth,1.20
2023-02-12T18:59:00,pth,2.40
2023-02-12T19:00:00,pth,1.20
2023-02-12T19:02:00,pth,3.60
2023-02-12T19:03:00,pth,2.40
2023-02-12T19:04:00,pth,1.20
2023-02-12T19:05:00,pth,2.40
2023-02-12T19:07:00,pth,4.80
2023-02-12T19:09:00,pth,6.00
2023-02-12T19:10:00,pth,1.20
2023-02-12T19:12:00,pth,3.60
2023-02-12T19:14:00,pth,3.60
2023-02-12T19:16:00,pth,2.40
2023-02-12T19:17:00,pth,1.20
2023-02-12T19:19:00,pth,6.00
2023-02-12T19:21:00,pth,6.00
2023-02-12T19:23:00,pth,4.80
2023-02-12T19:24:00,pth,2.40
2023-02-12T19:26:00,pth,6.00
2023-02-12T19:28:00,pth,6.00
2023-02-12T19:30:00,pth,2.40
2023-02-12T19:31:00,pth,2.40
2023-02-12T19:33:00,pth,4.80
2023-02-12T19:35:00,pth,4.80
2023-02-12T19:37:00,pth,6.00
2023-02-12T19:39:00,pth,4.80
2023-02-12T19:40:00,pth,1.20
2023-02-12T19:42:00,pth,3.60
2023-02-12T19:44:00,pth,2.40
2023-02-12T19:45:00,pth,1.20
2023-02-12T19:47:00,pth,3.60
2023-02-12T19:49:00,pth,2.40
2023-02-12T19:51:00,pth,3.60
2023-02-12T19:53:00,pth,2.40
2023-02-12T19:54:00,pth,1.20
2023-02-12T19:55:00,pth,1.20
2023-02-12T19:57:00,pth,3.60
2023-02-12T19:58:00,pth,1.20
2023-02-12T19:59:00,pth,2.40
2023-02-12T20:01:00,pth,4.80
2023-02-12T20:02:00,pth,3.60
2023-02-12T20:04:00,pth,4.80
2023-02-12T20:06:00,pth,4.80
2023-02-12T20:07:00,pth,2.40
2023-02-12T20:09:00,pth,3.60
2023-02-12T20:10:00,pth,1.20
2023-02-12T20:12:00,pth,2.40
2023-02-12T20:13:00,pth,1.20
2023-02-12T20:14:00,pth,2.40
2023-02-12T20:15:00,pth,1.20
2023-02-12T20:17:00,pth,2.40
2023-02-12T20:18:00,pth,2.40
2023-02-12T20:20:00,pth,2.40
2023-02-12T20:22:00,pth,3.60
2023-02-12T20:24:00,pth,2.40
2023-02-12T20:25:00,pth,1.20
2023-02-12T20:27:00,pth,6.00
2023-02-12T20:29:00,pth,4.80
2023-02-12T20:31:00,pth,4.80
2023-02-12T20:33:00,pth,6.00
2023-02-12T20:35:00,pth,3.60
2023-02-12T20:36:00,pth,2.40
2023-02-12T20:38:00,pth,2.40
2023-02-12T20:39:00,pth,2.40
2023-02-12T20:40:00,pth,1.20
2023-02-12T20:41:00,pth,1.20
2023-02-12T20:43:00,pth,3.60
2023-02-12T20:45:00,pth,2.40
2023-02-12T20:47:00,pth,3.60
2023-02-12T20:49:00,pth,3.60
2023-02-12T20:50:00,pth,2.40
2023-02-12T20:52:00,pth,4.80
2023-02-12T20:53:00,pth,3.60
2023-02-12T20:55:00,pth,6.00
2023-02-12T20:57:00,pth,6.00
2023-02-12T20:59:00,pth,6.00
2023-02-12T21:00:00,pth,2.40
2023-02-12T21:02:00,pth,3.60
2023-02-12T21:04:00,pth,3.60
2023-02-12T21:06:00,pth,3.60
2023-02-12T21:07:00,pth,2.40
2023-02-12T21:09:00,pth,3.60
2023-02-12T21:11:00,pth,3.60
2023-02-12T21:12:00,pth,2.40
2023-02-12T21:14:00,pth,3.60
2023-02-12T21:15:00,pth,1.20
2023-02-12T21:16:00,pth,2.40
2023-02-12T21:18:00,pth,4.80
2023-02-12T21:19:00,pth,2.40
2023-02-12T21:20:00,pth,3.60
2023-02-12T21:22:00,pth,16.80
2023-02-12T21:23:00,pth,7.20
2023-02-12T21:25:00,pth,16.80
2023-02-12T21:27:00,pth,15.60
2023-02-12T21:28:00,pth,8.40
2023-02-12T21:29:00,pth,7.20
2023-02-12T21:31:00,pth,16.80
2023-02-12T21:33:00,pth,15.60
2023-02-12T21:35:00,pth,15.60
2023-02-12T21:36:00,pth,8.40
2023-02-12T21:38:00,pth,16.80
2023-02-12T21:39:00,pth,8.40
2023-02-12T21:40:00,pth,7.20
2023-02-12T21:42:00,pth,16.80
2023-02-12T21:43:00,pth,8.40
2023-02-12T21:45:00,pth,15.60
2023-02-12T21:47:00,pth,16.80
2023-02-12T21:48:00,pth,8.40
2023-02-12T21:50:00,pth,16.80
2023-02-12T21:52:00,pth,16.80
2023-02-12T21:53:00,pth,8.40
2023-02-12T21:55:00,pth,16.80
2023-02-12T21:56:00,pth,8.40
2023-02-12T21:58:00,pth,15.60
2023-02-12T21:59:00,pth,8.40
2023-02-12T22:01:00,pth,15.60
2023-02-12T22:02:00,pth,8.40
2023-02-12T22:04:00,pth,15.60
2023-02-12T22:05:00,pth,8.40
2023-02-12T22:07:00,pth,15.60
2023-02-12T22:08:00,pth,8.40
2023-02-12T22:10:00,pth,16.80
2023-02-12T22:11:00,pth,7.20
2023-02-12T22:12:00,pth,8.40
2023-02-12T22:14:00,pth,15.60
2023-02-12T22:16:00,pth,16.80
2023-02-12T22:18:00,pth,14.40
2023-02-12T22:20:00,pth,4.80
2023-02-12T22:22:00,pth,4.80
2023-02-12T22:23:00,pth,2.40
2023-02-12T22:25:00,pth,6.00
2023-02-12T22:27:00,pth,4.80
2023-02-12T22:29:00,pth,4.80
2023-02-12T22:30:00,pth,1.20
2023-02-12T22:31:00,pth,1.20
2023-02-12T22:33:00,pth,3.60
2023-02-12T22:35:00,pth,2.40
2023-02-12T22:37:00,pth,3.60
2023-02-12T22:38:00,pth,1.20
2023-02-12T22:40:00,pth,2.40
2023-02-12T22:42:00,pth,3.60
2023-02-12T22:44:00,pth,2.40
2023-02-12T22:45:00,pth,1.20
2023-02-12T22:47:00,pth,2.40
2023-02-12T22:48:00,pth,1.20